Flag for U.S.A. Weather past 2 weeks in Lakewood, Colorado, U.S.A.

Now
76 °F

Passing clouds.


Feels Like: 75 °F
Forecast: 46 / 78 °F
Wind: 13 mph from Southeast

Location: Centennial Airport

Current Time: Oct 25, 2014 at 3:20:48 PM

Latest Report: Oct 25, 2014 at 2:53 PM


Visibility: 10 mi

Pressure: 29.98 "Hg

Humidity: 12%

Dew point: 20 °F

Location of LakewoodLocation

Historic Weather in Lakewood — Graph

°F

Lakewood temperature yesterday

Maximum temperature yesterday: 79 °F (at 3:53 PM)
Minimum temperature yesterday: 51 °F (at 10:53 PM)
Average temperature yesterday: 64 °F

Past Weeks' High & Low Weather Summary

 TemperatureHumidityPressure
High80 °F (Oct 15, 3:53 PM)93% (Oct 11, 5:53 AM)30.24 "Hg (Oct 11, 5:53 AM)
Low36 °F (Oct 13, 6:53 AM)9% (Oct 24, 1:53 PM)29.60 "Hg (Oct 12, 5:53 AM)
Average55 °F49%30.01 "Hg
* Reported Oct 10 1:53 PM — Oct 25 1:53 PM, Lakewood, Weather by CustomWeather, © 2014

Note: Actual official high and low records may vary slightly from our data, if they occured in-between our weather recording intervals... More about our weather records

Advertising

Lakewood weather history for previous 24 hours

 ConditionsComfort  
Time TempWeatherWind HumidityBarometerVisibility
1:53 PM
Oct 25
76 °FSunny.9 mph12%29.98 "Hg10 mi
12:53 PM74 °FSunny.12 mph14%30.04 "Hg10 mi
11:53 AM72 °FSunny.12 mph15%30.09 "Hg10 mi
10:53 AM68 °FSunny.No wind22%30.13 "Hg10 mi
9:53 AM64 °FSunny.3 mph27%30.16 "Hg10 mi
8:53 AM58 °FSunny.6 mph32%30.17 "Hg10 mi
7:53 AM46 °FClear.8 mph42%30.18 "Hg10 mi
6:53 AM40 °FClear.5 mph53%30.16 "Hg10 mi
5:53 AM51 °FClear.10 mph31%30.11 "Hg10 mi
4:53 AM45 °FClear.7 mph42%30.09 "Hg10 mi
3:53 AM50 °FClear.9 mph33%30.07 "Hg10 mi
2:53 AM50 °FClear.9 mph35%30.08 "Hg10 mi
1:53 AM56 °FClear.10 mph28%30.06 "Hg10 mi
12:53 AM56 °FClear.10 mph28%30.06 "Hg10 mi
11:53 PM
Oct 24
53 °FClear.8 mph35%30.09 "Hg10 mi
10:53 PM51 °FClear.7 mph42%30.10 "Hg10 mi
9:53 PM53 °FClear.5 mph38%30.12 "Hg10 mi
8:53 PM58 °FClear.8 mph32%30.09 "Hg10 mi
7:53 PM61 °FClear.6 mph27%30.09 "Hg10 mi
6:53 PM68 °FSunny.6 mph20%30.04 "Hg10 mi
5:53 PM69 °FPassing clouds.5 mph20%30.01 "Hg10 mi
4:53 PM76 °FPassing clouds.9 mph14%29.97 "Hg10 mi
3:53 PM79 °FPassing clouds.9 mph11%29.96 "Hg10 mi
Weather by CustomWeather, © 2014

See weather overviewHow to use our weather pages